Year,Month,Day,Hour,Minute,Value (Times are PST for temperature in C)
2015,10,14,00,00,8.20
2015,10,14,00,01,8.20
2015,10,14,00,02,8.10
2015,10,14,00,03,8.10
2015,10,14,00,04,8.10
2015,10,14,00,05,8.10
2015,10,14,00,06,8.10
2015,10,14,00,07,8.10
2015,10,14,00,08,8.10
2015,10,14,00,09,8.00
2015,10,14,00,10,8.00
2015,10,14,00,11,8.00
2015,10,14,00,12,7.90
2015,10,14,00,13,7.90
2015,10,14,00,14,7.90
2015,10,14,00,15,7.90
2015,10,14,00,16,7.90
2015,10,14,00,17,8.00
2015,10,14,00,18,8.00
2015,10,14,00,19,8.00
2015,10,14,00,20,8.00
2015,10,14,00,21,8.00
2015,10,14,00,22,8.00
2015,10,14,00,23,8.00
2015,10,14,00,24,8.00
2015,10,14,00,25,8.00
2015,10,14,00,26,8.10
2015,10,14,00,27,8.10
2015,10,14,00,28,8.10
2015,10,14,00,29,8.10
2015,10,14,00,30,8.10
2015,10,14,00,31,8.10
2015,10,14,00,32,8.10
2015,10,14,00,33,8.00
2015,10,14,00,34,8.00
2015,10,14,00,35,8.00
2015,10,14,00,36,8.00
2015,10,14,00,37,8.00
2015,10,14,00,38,8.00
2015,10,14,00,39,7.90
2015,10,14,00,40,7.90
2015,10,14,00,41,7.90
2015,10,14,00,42,7.90
2015,10,14,00,43,7.80
2015,10,14,00,44,7.80
2015,10,14,00,45,7.70
2015,10,14,00,46,7.70
2015,10,14,00,47,7.70
2015,10,14,00,48,7.70
2015,10,14,00,49,7.70
2015,10,14,00,50,7.70
2015,10,14,00,51,7.80
2015,10,14,00,52,7.80
2015,10,14,00,53,7.80
2015,10,14,00,54,7.80
2015,10,14,00,55,7.90
2015,10,14,00,56,7.90
2015,10,14,00,57,8.00
2015,10,14,00,58,8.00
2015,10,14,00,59,8.00
2015,10,14,01,00,8.00
2015,10,14,01,01,8.10
2015,10,14,01,02,8.20
2015,10,14,01,03,8.20
2015,10,14,01,04,8.20
2015,10,14,01,05,8.20
2015,10,14,01,06,8.20
2015,10,14,01,07,8.20
2015,10,14,01,08,8.20
2015,10,14,01,09,8.20
2015,10,14,01,10,8.20
2015,10,14,01,11,8.10
2015,10,14,01,12,8.10
2015,10,14,01,13,8.10
2015,10,14,01,14,8.10
2015,10,14,01,15,8.00
2015,10,14,01,16,8.00
2015,10,14,01,17,8.00
2015,10,14,01,18,8.10
2015,10,14,01,19,8.10
2015,10,14,01,20,8.20
2015,10,14,01,21,8.20
2015,10,14,01,22,8.20
2015,10,14,01,23,8.20
2015,10,14,01,24,8.20
2015,10,14,01,25,8.20
2015,10,14,01,26,8.20
2015,10,14,01,27,8.20
2015,10,14,01,28,8.20
2015,10,14,01,29,8.20
2015,10,14,01,30,8.20
2015,10,14,01,31,8.20
2015,10,14,01,32,8.30
2015,10,14,01,33,8.20
2015,10,14,01,34,8.20
2015,10,14,01,35,8.20
2015,10,14,01,36,8.20
2015,10,14,01,37,8.20
2015,10,14,01,38,8.20
2015,10,14,01,39,8.20
2015,10,14,01,40,8.20
2015,10,14,01,41,8.30
2015,10,14,01,42,8.30
2015,10,14,01,43,8.30
2015,10,14,01,44,8.30
2015,10,14,01,45,8.30
2015,10,14,01,46,8.30
2015,10,14,01,47,8.30
2015,10,14,01,48,8.30
2015,10,14,01,49,8.30
2015,10,14,01,50,8.30
2015,10,14,01,51,8.30
2015,10,14,01,52,8.30
2015,10,14,01,53,8.30
2015,10,14,01,54,8.30
2015,10,14,01,55,8.30
2015,10,14,01,56,8.30
2015,10,14,01,57,8.20
2015,10,14,01,58,8.20
2015,10,14,01,59,8.20
2015,10,14,02,00,8.20
2015,10,14,02,01,8.20
2015,10,14,02,02,8.20
2015,10,14,02,03,8.10
2015,10,14,02,04,8.10
2015,10,14,02,05,8.10
2015,10,14,02,06,8.10
2015,10,14,02,07,8.00
2015,10,14,02,08,8.00
2015,10,14,02,09,8.00
2015,10,14,02,10,8.00
2015,10,14,02,11,7.90
2015,10,14,02,12,7.90
2015,10,14,02,13,7.90
2015,10,14,02,14,7.90
2015,10,14,02,15,7.90
2015,10,14,02,16,7.90
2015,10,14,02,17,7.90
2015,10,14,02,18,7.90
2015,10,14,02,19,7.90
2015,10,14,02,20,7.90
2015,10,14,02,21,7.90
2015,10,14,02,22,7.90
2015,10,14,02,23,7.80
2015,10,14,02,24,7.90
2015,10,14,02,25,7.90
2015,10,14,02,26,7.90
2015,10,14,02,27,7.90
2015,10,14,02,28,7.90
2015,10,14,02,29,7.90
2015,10,14,02,30,7.90
2015,10,14,02,31,7.90
2015,10,14,02,32,7.90
2015,10,14,02,33,7.90
2015,10,14,02,34,7.90
2015,10,14,02,35,7.90
2015,10,14,02,36,7.90
2015,10,14,02,37,7.90
2015,10,14,02,38,7.90
2015,10,14,02,39,7.90
2015,10,14,02,40,8.00
2015,10,14,02,41,8.00
2015,10,14,02,42,8.10
2015,10,14,02,43,8.10
2015,10,14,02,44,8.10
2015,10,14,02,45,8.20
2015,10,14,02,46,8.20
2015,10,14,02,47,8.20
2015,10,14,02,48,8.20
2015,10,14,02,49,8.20
2015,10,14,02,50,8.20
2015,10,14,02,51,8.20
2015,10,14,02,52,8.20
2015,10,14,02,53,8.20
2015,10,14,02,54,8.20
2015,10,14,02,55,8.20
2015,10,14,02,56,8.20
2015,10,14,02,57,8.20
2015,10,14,02,58,8.20
2015,10,14,02,59,8.20
2015,10,14,03,00,8.10
2015,10,14,03,01,8.10
2015,10,14,03,02,8.00
2015,10,14,03,03,8.00
2015,10,14,03,04,8.00
2015,10,14,03,05,7.90
2015,10,14,03,06,7.90
2015,10,14,03,07,7.90
2015,10,14,03,08,7.90
2015,10,14,03,09,7.90
2015,10,14,03,10,7.80
2015,10,14,03,11,7.80
2015,10,14,03,12,7.80
2015,10,14,03,13,7.80
2015,10,14,03,14,7.80
2015,10,14,03,15,7.80
2015,10,14,03,16,7.80
2015,10,14,03,17,7.80
2015,10,14,03,18,7.70
2015,10,14,03,19,7.70
2015,10,14,03,20,7.70
2015,10,14,03,21,7.70
2015,10,14,03,22,7.70
2015,10,14,03,23,7.70
2015,10,14,03,24,7.80
2015,10,14,03,25,7.80
2015,10,14,03,26,7.80
2015,10,14,03,27,7.80
2015,10,14,03,28,7.90
2015,10,14,03,29,7.90
2015,10,14,03,30,7.90
2015,10,14,03,31,7.90
2015,10,14,03,32,7.90
2015,10,14,03,33,7.80
2015,10,14,03,34,7.80
2015,10,14,03,35,7.80
2015,10,14,03,36,7.80
2015,10,14,03,37,7.80
2015,10,14,03,38,7.80
2015,10,14,03,39,7.80
2015,10,14,03,40,7.70
2015,10,14,03,41,7.70
2015,10,14,03,42,7.70
2015,10,14,03,43,7.70
2015,10,14,03,44,7.70
2015,10,14,03,45,7.70
2015,10,14,03,46,7.70
2015,10,14,03,47,7.60
2015,10,14,03,48,7.60
2015,10,14,03,49,7.60
2015,10,14,03,50,7.60
2015,10,14,03,51,7.60
2015,10,14,03,52,7.60
2015,10,14,03,53,7.70
2015,10,14,03,54,7.70
2015,10,14,03,55,7.70
2015,10,14,03,56,7.70
2015,10,14,03,57,7.70
2015,10,14,03,58,7.70
2015,10,14,03,59,7.70
2015,10,14,04,00,7.70
2015,10,14,04,01,7.70
2015,10,14,04,02,7.70
2015,10,14,04,03,7.70
2015,10,14,04,04,7.70
2015,10,14,04,05,7.70
2015,10,14,04,06,7.70
2015,10,14,04,07,7.70
2015,10,14,04,08,7.70
2015,10,14,04,09,7.70
2015,10,14,04,10,7.80
2015,10,14,04,11,7.70
2015,10,14,04,12,7.70
2015,10,14,04,13,7.70
2015,10,14,04,14,7.70
2015,10,14,04,15,7.70
2015,10,14,04,16,7.70
2015,10,14,04,17,7.80
2015,10,14,04,18,7.80
2015,10,14,04,19,7.80
2015,10,14,04,20,7.80
2015,10,14,04,21,7.80
2015,10,14,04,22,7.80
2015,10,14,04,23,7.80
2015,10,14,04,24,7.80
2015,10,14,04,25,7.80
2015,10,14,04,26,7.80
2015,10,14,04,27,7.80
2015,10,14,04,28,7.80
2015,10,14,04,29,7.80
2015,10,14,04,30,7.80
2015,10,14,04,31,7.80
2015,10,14,04,32,7.80
2015,10,14,04,33,7.80
2015,10,14,04,34,7.70
2015,10,14,04,35,7.70
2015,10,14,04,36,7.70
2015,10,14,04,37,7.80
2015,10,14,04,38,7.80
2015,10,14,04,39,7.80
2015,10,14,04,40,7.80
2015,10,14,04,41,7.80
2015,10,14,04,42,7.80
2015,10,14,04,43,7.80
2015,10,14,04,44,7.80
2015,10,14,04,45,7.80
2015,10,14,04,46,7.70
2015,10,14,04,47,7.70
2015,10,14,04,48,7.70
2015,10,14,04,49,7.70
2015,10,14,04,50,7.70
2015,10,14,04,51,7.70
2015,10,14,04,52,7.70
2015,10,14,04,53,7.70
2015,10,14,04,54,7.70
2015,10,14,04,55,7.70
2015,10,14,04,56,7.60
2015,10,14,04,57,7.60
2015,10,14,04,58,7.60
2015,10,14,04,59,7.60
2015,10,14,05,00,7.50
2015,10,14,05,01,7.50
2015,10,14,05,02,7.40
2015,10,14,05,03,7.40
2015,10,14,05,04,7.30
2015,10,14,05,05,7.30
2015,10,14,05,06,7.30
2015,10,14,05,07,7.20
2015,10,14,05,08,7.20
2015,10,14,05,09,7.20
2015,10,14,05,10,7.10
2015,10,14,05,11,7.10
2015,10,14,05,12,7.10
2015,10,14,05,13,7.10
2015,10,14,05,14,7.00
2015,10,14,05,15,7.00
2015,10,14,05,16,7.00
2015,10,14,05,17,7.00
2015,10,14,05,18,7.00
2015,10,14,05,19,7.10
2015,10,14,05,20,7.10
2015,10,14,05,21,7.10
2015,10,14,05,22,7.10
2015,10,14,05,23,7.10
2015,10,14,05,24,7.00
2015,10,14,05,25,7.00
2015,10,14,05,26,6.90
2015,10,14,05,27,7.00
2015,10,14,05,28,7.00
2015,10,14,05,29,7.00
2015,10,14,05,30,7.00
2015,10,14,05,31,6.90
2015,10,14,05,32,6.90
2015,10,14,05,33,6.90
2015,10,14,05,34,6.90
2015,10,14,05,35,6.90
2015,10,14,05,36,6.90
2015,10,14,05,37,6.90
2015,10,14,05,38,6.90
2015,10,14,05,39,6.90
2015,10,14,05,40,7.00
2015,10,14,05,41,7.00
2015,10,14,05,42,7.00
2015,10,14,05,43,7.00
2015,10,14,05,44,7.00
2015,10,14,05,45,6.90
2015,10,14,05,46,6.90
2015,10,14,05,47,6.90
2015,10,14,05,48,6.90
2015,10,14,05,49,6.90
2015,10,14,05,50,6.90
2015,10,14,05,51,7.00
2015,10,14,05,52,7.00
2015,10,14,05,53,6.90
2015,10,14,05,54,6.90
2015,10,14,05,55,6.90
2015,10,14,05,56,6.90
2015,10,14,05,57,6.90
2015,10,14,05,58,6.90
2015,10,14,05,59,6.90
2015,10,14,06,00,6.80
2015,10,14,06,01,6.80
2015,10,14,06,02,6.70
2015,10,14,06,03,6.70
2015,10,14,06,04,6.70
2015,10,14,06,05,6.70
2015,10,14,06,06,6.80
2015,10,14,06,07,6.80
2015,10,14,06,08,6.80
2015,10,14,06,09,6.80
2015,10,14,06,10,6.80
2015,10,14,06,11,6.70
2015,10,14,06,12,6.70
2015,10,14,06,13,6.70
2015,10,14,06,14,6.70
2015,10,14,06,15,6.70
2015,10,14,06,16,6.70
2015,10,14,06,17,6.70
2015,10,14,06,18,6.80
2015,10,14,06,19,6.80
2015,10,14,06,20,6.80
2015,10,14,06,21,6.80
2015,10,14,06,22,6.80
2015,10,14,06,23,6.80
2015,10,14,06,24,6.80
2015,10,14,06,25,6.80
2015,10,14,06,26,6.80
2015,10,14,06,27,6.80
2015,10,14,06,28,6.80
2015,10,14,06,29,6.90
2015,10,14,06,30,7.00
2015,10,14,06,31,7.00
2015,10,14,06,32,7.00
2015,10,14,06,33,7.00
2015,10,14,06,34,7.10
2015,10,14,06,35,7.10
2015,10,14,06,36,7.10
2015,10,14,06,37,7.10
2015,10,14,06,38,7.10
2015,10,14,06,39,7.10
2015,10,14,06,40,7.10
2015,10,14,06,41,7.10
2015,10,14,06,42,7.20
2015,10,14,06,43,7.20
2015,10,14,06,44,7.30
2015,10,14,06,45,7.30
2015,10,14,06,46,7.30
2015,10,14,06,47,7.40
2015,10,14,06,48,7.40
2015,10,14,06,49,7.50
2015,10,14,06,50,7.50
2015,10,14,06,51,7.40
2015,10,14,06,52,7.40
2015,10,14,06,53,7.40
2015,10,14,06,54,7.30
2015,10,14,06,55,7.30
2015,10,14,06,56,7.30
2015,10,14,06,57,7.30
2015,10,14,06,58,7.30
2015,10,14,06,59,7.30
2015,10,14,07,00,7.30
2015,10,14,07,01,7.30
2015,10,14,07,02,7.30
2015,10,14,07,03,7.30
2015,10,14,07,04,7.30
2015,10,14,07,05,7.30
2015,10,14,07,06,7.30
2015,10,14,07,07,7.20
2015,10,14,07,08,7.20
2015,10,14,07,09,7.20
2015,10,14,07,10,7.20
2015,10,14,07,11,7.20
2015,10,14,07,12,7.20
2015,10,14,07,13,7.20
2015,10,14,07,14,7.20
2015,10,14,07,15,7.20
2015,10,14,07,16,7.20
2015,10,14,07,17,7.20
2015,10,14,07,18,7.10
2015,10,14,07,19,7.10
2015,10,14,07,20,7.10
2015,10,14,07,21,7.10
2015,10,14,07,22,7.10
2015,10,14,07,23,7.20
2015,10,14,07,24,7.30
2015,10,14,07,25,7.30
2015,10,14,07,26,7.30
2015,10,14,07,27,7.30
2015,10,14,07,28,7.30
2015,10,14,07,29,7.30
2015,10,14,07,30,7.30
2015,10,14,07,31,7.30
2015,10,14,07,32,7.40
2015,10,14,07,33,7.50
2015,10,14,07,34,7.60
2015,10,14,07,35,7.80
2015,10,14,07,36,7.80
2015,10,14,07,37,7.90
2015,10,14,07,38,8.00
2015,10,14,07,39,8.00
2015,10,14,07,40,8.10
2015,10,14,07,41,8.10
2015,10,14,07,42,8.10
2015,10,14,07,43,8.10
2015,10,14,07,44,8.20
2015,10,14,07,45,8.20
2015,10,14,07,46,8.10
2015,10,14,07,47,8.10
2015,10,14,07,48,8.10
2015,10,14,07,49,8.10
2015,10,14,07,50,8.10
2015,10,14,07,51,8.10
2015,10,14,07,52,8.10
2015,10,14,07,53,8.10
2015,10,14,07,54,8.10
2015,10,14,07,55,8.20
2015,10,14,07,56,8.20
2015,10,14,07,57,8.30
2015,10,14,07,58,8.30
2015,10,14,07,59,8.30
2015,10,14,08,00,8.30
2015,10,14,08,01,8.30
2015,10,14,08,02,8.30
2015,10,14,08,03,8.30
2015,10,14,08,04,8.20
2015,10,14,08,05,8.20
2015,10,14,08,06,8.20
2015,10,14,08,07,8.30
2015,10,14,08,08,8.30
2015,10,14,08,09,8.30
2015,10,14,08,10,8.30
2015,10,14,08,11,8.30
2015,10,14,08,12,8.30
2015,10,14,08,13,8.30
2015,10,14,08,14,8.30
2015,10,14,08,15,8.20
2015,10,14,08,16,8.20
2015,10,14,08,17,8.20
2015,10,14,08,18,8.20
2015,10,14,08,19,8.20
2015,10,14,08,20,8.10
2015,10,14,08,21,8.20
2015,10,14,08,22,8.10
2015,10,14,08,23,8.10
2015,10,14,08,24,8.10
2015,10,14,08,25,8.10
2015,10,14,08,26,8.10
2015,10,14,08,27,8.10
2015,10,14,08,28,8.10
2015,10,14,08,29,8.10
2015,10,14,08,30,8.20
2015,10,14,08,31,8.20
2015,10,14,08,32,8.20
2015,10,14,08,33,8.30
2015,10,14,08,34,8.30
2015,10,14,08,35,8.30
2015,10,14,08,36,8.20
2015,10,14,08,37,8.30
2015,10,14,08,38,8.30
2015,10,14,08,39,8.30
2015,10,14,08,40,8.30
2015,10,14,08,41,8.40
2015,10,14,08,42,8.40
2015,10,14,08,43,8.40
2015,10,14,08,44,8.40
2015,10,14,08,45,8.30
2015,10,14,08,46,8.40
2015,10,14,08,47,8.40
2015,10,14,08,48,8.50
2015,10,14,08,49,8.50
2015,10,14,08,50,8.60
2015,10,14,08,51,8.60
2015,10,14,08,52,8.60
2015,10,14,08,53,8.70
2015,10,14,08,54,8.80
2015,10,14,08,55,8.80
2015,10,14,08,56,8.90
2015,10,14,08,57,8.90
2015,10,14,08,58,8.80
2015,10,14,08,59,8.90
2015,10,14,09,00,8.90
2015,10,14,09,01,8.90
2015,10,14,09,02,8.90
2015,10,14,09,03,8.90
2015,10,14,09,04,9.00
2015,10,14,09,05,9.00
2015,10,14,09,06,9.10
2015,10,14,09,07,9.10
2015,10,14,09,08,9.20
2015,10,14,09,09,9.20
2015,10,14,09,10,9.30
2015,10,14,09,11,9.30
2015,10,14,09,12,9.40
2015,10,14,09,13,9.40
2015,10,14,09,14,9.40
2015,10,14,09,15,9.40
2015,10,14,09,16,9.50
2015,10,14,09,17,9.60
2015,10,14,09,18,9.60
2015,10,14,09,19,9.60
2015,10,14,09,20,9.70
2015,10,14,09,21,9.70
2015,10,14,09,22,9.80
2015,10,14,09,23,9.80
2015,10,14,09,24,9.80
2015,10,14,09,25,9.80
2015,10,14,09,26,9.80
2015,10,14,09,27,9.80
2015,10,14,09,28,9.90
2015,10,14,09,29,9.90
2015,10,14,09,30,9.90
2015,10,14,09,31,10.00
2015,10,14,09,32,10.10
2015,10,14,09,33,10.10
2015,10,14,09,34,10.20
2015,10,14,09,35,10.20
2015,10,14,09,36,10.30
2015,10,14,09,37,10.30
2015,10,14,09,38,10.30
2015,10,14,09,39,10.40
2015,10,14,09,40,10.40
2015,10,14,09,41,10.40
2015,10,14,09,42,10.40
2015,10,14,09,43,10.50
2015,10,14,09,44,10.60
2015,10,14,09,45,10.60
2015,10,14,09,46,10.60
2015,10,14,09,47,10.70
2015,10,14,09,48,10.80
2015,10,14,09,49,10.80
2015,10,14,09,50,10.80
2015,10,14,09,51,10.80
2015,10,14,09,52,10.90
2015,10,14,09,53,10.90
2015,10,14,09,54,11.00
2015,10,14,09,55,11.00
2015,10,14,09,56,11.10
2015,10,14,09,57,11.10
2015,10,14,09,58,11.20
2015,10,14,09,59,11.30
2015,10,14,10,00,11.30
2015,10,14,10,01,11.40
2015,10,14,10,02,11.40
2015,10,14,10,03,11.40
2015,10,14,10,04,11.50
2015,10,14,10,05,11.60
2015,10,14,10,06,11.70
2015,10,14,10,07,11.80
2015,10,14,10,08,11.80
2015,10,14,10,09,11.90
2015,10,14,10,10,12.00
2015,10,14,10,11,12.00
2015,10,14,10,12,12.10
2015,10,14,10,13,12.10
2015,10,14,10,14,12.10
2015,10,14,10,15,12.10
2015,10,14,10,16,12.10
2015,10,14,10,17,12.10
2015,10,14,10,18,12.10
2015,10,14,10,19,12.10
2015,10,14,10,20,12.10
2015,10,14,10,21,12.00
2015,10,14,10,22,12.00
2015,10,14,10,23,12.00
2015,10,14,10,24,12.00
2015,10,14,10,25,12.10
2015,10,14,10,26,12.10
2015,10,14,10,27,12.10
2015,10,14,10,28,12.10
2015,10,14,10,29,12.20
2015,10,14,10,30,12.20
2015,10,14,10,31,12.20
2015,10,14,10,32,12.20
2015,10,14,10,33,12.20
2015,10,14,10,34,12.20
2015,10,14,10,35,12.20
2015,10,14,10,36,12.30
2015,10,14,10,37,12.30
2015,10,14,10,38,12.30
2015,10,14,10,39,12.30
2015,10,14,10,40,12.30
2015,10,14,10,41,12.30
2015,10,14,10,42,12.40
2015,10,14,10,43,12.40
2015,10,14,10,44,12.40
2015,10,14,10,45,12.40
2015,10,14,10,46,12.50
2015,10,14,10,47,12.50
2015,10,14,10,48,12.60
2015,10,14,10,49,12.60
2015,10,14,10,50,12.60
2015,10,14,10,51,12.60
2015,10,14,10,52,12.70
2015,10,14,10,53,12.70
2015,10,14,10,54,12.80
2015,10,14,10,55,12.80
2015,10,14,10,56,12.80
2015,10,14,10,57,12.80
2015,10,14,10,58,12.80
2015,10,14,10,59,12.80
2015,10,14,11,00,12.80
2015,10,14,11,01,12.80
2015,10,14,11,02,12.80
2015,10,14,11,03,12.80
2015,10,14,11,04,12.90
2015,10,14,11,05,12.90
2015,10,14,11,06,12.90
2015,10,14,11,07,12.90
2015,10,14,11,08,12.90
2015,10,14,11,09,12.90
2015,10,14,11,10,13.00
2015,10,14,11,11,13.00
2015,10,14,11,12,13.10
2015,10,14,11,13,13.10
2015,10,14,11,14,13.20
2015,10,14,11,15,13.20
2015,10,14,11,16,13.20
2015,10,14,11,17,13.30
2015,10,14,11,18,13.30
2015,10,14,11,19,13.30
2015,10,14,11,20,13.40
2015,10,14,11,21,13.40
2015,10,14,11,22,13.50
2015,10,14,11,23,13.50
2015,10,14,11,24,13.50
2015,10,14,11,25,13.50
2015,10,14,11,26,13.50
2015,10,14,11,27,13.60
2015,10,14,11,28,13.60
2015,10,14,11,29,13.70
2015,10,14,11,30,13.70
2015,10,14,11,31,13.70
2015,10,14,11,32,13.70
2015,10,14,11,33,13.70
2015,10,14,11,34,13.80
2015,10,14,11,35,13.80
2015,10,14,11,36,13.80
2015,10,14,11,37,13.90
2015,10,14,11,38,13.90
2015,10,14,11,39,14.00
2015,10,14,11,40,14.10
2015,10,14,11,41,14.20
2015,10,14,11,42,14.20
2015,10,14,11,43,14.20
2015,10,14,11,44,14.20
2015,10,14,11,45,14.20
2015,10,14,11,46,14.20
2015,10,14,11,47,14.30
2015,10,14,11,48,14.40
2015,10,14,11,49,14.50
2015,10,14,11,50,14.50
2015,10,14,11,51,14.50
2015,10,14,11,52,14.50
2015,10,14,11,53,14.60
2015,10,14,11,54,14.60
2015,10,14,11,55,14.70
2015,10,14,11,56,14.80
2015,10,14,11,57,15.00
2015,10,14,11,58,15.10
2015,10,14,11,59,15.20
2015,10,14,12,00,15.20
2015,10,14,12,01,15.10
2015,10,14,12,02,15.10
2015,10,14,12,03,15.00
2015,10,14,12,04,14.90
2015,10,14,12,05,14.90
2015,10,14,12,06,14.90
2015,10,14,12,07,14.90
2015,10,14,12,08,14.80
2015,10,14,12,09,14.80
2015,10,14,12,10,14.90
2015,10,14,12,11,14.90
2015,10,14,12,12,14.90
2015,10,14,12,13,14.90
2015,10,14,12,14,14.80
2015,10,14,12,15,14.80
2015,10,14,12,16,14.90
2015,10,14,12,17,14.90
2015,10,14,12,18,15.00
2015,10,14,12,19,15.00
2015,10,14,12,20,15.10
2015,10,14,12,21,15.20
2015,10,14,12,22,15.20
2015,10,14,12,23,15.20
2015,10,14,12,24,15.20
2015,10,14,12,25,15.20
2015,10,14,12,26,15.20
2015,10,14,12,27,15.10
2015,10,14,12,28,15.10
2015,10,14,12,29,15.20
2015,10,14,12,30,15.10
2015,10,14,12,31,15.00
2015,10,14,12,32,15.00
2015,10,14,12,33,15.00
2015,10,14,12,34,15.00
2015,10,14,12,35,15.00
2015,10,14,12,36,15.00
2015,10,14,12,37,15.00
2015,10,14,12,38,15.00
2015,10,14,12,39,15.10
2015,10,14,12,40,15.20
2015,10,14,12,41,15.30
2015,10,14,12,42,15.40
2015,10,14,12,43,15.50
2015,10,14,12,44,15.60
2015,10,14,12,45,15.70
2015,10,14,12,46,15.70
2015,10,14,12,47,15.60
2015,10,14,12,48,15.50
2015,10,14,12,49,15.40
2015,10,14,12,50,15.30
2015,10,14,12,51,15.10
2015,10,14,12,52,15.10
2015,10,14,12,53,14.90
2015,10,14,12,54,14.80
2015,10,14,12,55,14.70
2015,10,14,12,56,14.70
2015,10,14,12,57,14.70
2015,10,14,12,58,14.70
2015,10,14,12,59,14.80
2015,10,14,13,00,14.90
2015,10,14,13,01,14.90
2015,10,14,13,02,14.80
2015,10,14,13,03,14.80
2015,10,14,13,04,14.80
2015,10,14,13,05,14.70
2015,10,14,13,06,14.70
2015,10,14,13,07,14.70
2015,10,14,13,08,14.70
2015,10,14,13,09,14.80
2015,10,14,13,10,14.80
2015,10,14,13,11,14.70
2015,10,14,13,12,14.70
2015,10,14,13,13,14.60
2015,10,14,13,14,14.50
2015,10,14,13,15,14.50
2015,10,14,13,16,14.50
2015,10,14,13,17,14.50
2015,10,14,13,18,14.60
2015,10,14,13,19,14.60
2015,10,14,13,20,14.60
2015,10,14,13,21,14.60
2015,10,14,13,22,14.70
2015,10,14,13,23,14.70
2015,10,14,13,24,14.60
2015,10,14,13,25,14.60
2015,10,14,13,26,14.70
2015,10,14,13,27,14.70
2015,10,14,13,28,14.70
2015,10,14,13,29,14.80
2015,10,14,13,30,14.90
2015,10,14,13,31,14.90
2015,10,14,13,32,15.00
2015,10,14,13,33,15.00
2015,10,14,13,34,15.00
2015,10,14,13,35,15.00
2015,10,14,13,36,15.00
2015,10,14,13,37,14.90
2015,10,14,13,38,14.90
2015,10,14,13,39,14.80
2015,10,14,13,40,14.80
2015,10,14,13,41,14.90
2015,10,14,13,42,14.90
2015,10,14,13,43,14.80
2015,10,14,13,44,14.80
2015,10,14,13,45,14.90
2015,10,14,13,46,14.80
2015,10,14,13,47,14.80
2015,10,14,13,48,14.90
2015,10,14,13,49,14.90
2015,10,14,13,50,14.90
2015,10,14,13,51,15.00
2015,10,14,13,52,15.00
2015,10,14,13,53,15.10
2015,10,14,13,54,15.10
2015,10,14,13,55,15.10
2015,10,14,13,56,15.00
2015,10,14,13,57,15.00
2015,10,14,13,58,14.90
2015,10,14,13,59,14.80
2015,10,14,14,00,14.90
2015,10,14,14,01,14.90
2015,10,14,14,02,14.90
2015,10,14,14,03,15.00
2015,10,14,14,04,15.10
2015,10,14,14,05,15.10
2015,10,14,14,06,15.20
2015,10,14,14,07,15.20
2015,10,14,14,08,15.30
2015,10,14,14,09,15.20
2015,10,14,14,10,15.20
2015,10,14,14,11,15.10
2015,10,14,14,12,15.10
2015,10,14,14,13,15.00
2015,10,14,14,14,14.90
2015,10,14,14,15,14.80
2015,10,14,14,16,14.80
2015,10,14,14,17,14.80
2015,10,14,14,18,14.70
2015,10,14,14,19,14.70
2015,10,14,14,20,14.70
2015,10,14,14,21,14.60
2015,10,14,14,22,14.50
2015,10,14,14,23,14.40
2015,10,14,14,24,14.50
2015,10,14,14,25,14.50
2015,10,14,14,26,14.60
2015,10,14,14,27,14.60
2015,10,14,14,28,14.70
2015,10,14,14,29,14.70
2015,10,14,14,30,14.70
2015,10,14,14,31,14.70
2015,10,14,14,32,14.70
2015,10,14,14,33,14.70
2015,10,14,14,34,14.70
2015,10,14,14,35,14.70
2015,10,14,14,36,14.70
2015,10,14,14,37,14.70
2015,10,14,14,38,14.70
2015,10,14,14,39,14.70
2015,10,14,14,40,14.70
2015,10,14,14,41,14.70
2015,10,14,14,42,14.80
2015,10,14,14,43,14.70
2015,10,14,14,44,14.70
2015,10,14,14,45,14.70
2015,10,14,14,46,14.70
2015,10,14,14,47,14.70
2015,10,14,14,48,14.70
2015,10,14,14,49,14.70
2015,10,14,14,50,14.80
2015,10,14,14,51,14.80
2015,10,14,14,52,14.80
2015,10,14,14,53,14.70
2015,10,14,14,54,14.80
2015,10,14,14,55,14.90
2015,10,14,14,56,14.90
2015,10,14,14,57,15.00
2015,10,14,14,58,15.00
2015,10,14,14,59,15.00
2015,10,14,15,00,15.00
2015,10,14,15,01,15.10
2015,10,14,15,02,15.20
2015,10,14,15,03,15.20
2015,10,14,15,04,15.20
2015,10,14,15,05,15.30
2015,10,14,15,06,15.30
2015,10,14,15,07,15.40
2015,10,14,15,08,15.50
2015,10,14,15,09,15.50
2015,10,14,15,10,15.60
2015,10,14,15,11,15.50
2015,10,14,15,12,15.40
2015,10,14,15,13,15.40
2015,10,14,15,14,15.40
2015,10,14,15,15,15.40
2015,10,14,15,16,15.50
2015,10,14,15,17,15.60
2015,10,14,15,18,15.60
2015,10,14,15,19,15.60
2015,10,14,15,20,15.60
2015,10,14,15,21,15.70
2015,10,14,15,22,15.60
2015,10,14,15,23,15.60
2015,10,14,15,24,15.60
2015,10,14,15,25,15.60
2015,10,14,15,26,15.60
2015,10,14,15,27,15.60
2015,10,14,15,28,15.60
2015,10,14,15,29,15.50
2015,10,14,15,30,15.40
2015,10,14,15,31,15.30
2015,10,14,15,32,15.30
2015,10,14,15,33,15.30
2015,10,14,15,34,15.30
2015,10,14,15,35,15.30
2015,10,14,15,36,15.30
2015,10,14,15,37,15.30
2015,10,14,15,38,15.30
2015,10,14,15,39,15.40
2015,10,14,15,40,15.40
2015,10,14,15,41,15.40
2015,10,14,15,42,15.40
2015,10,14,15,43,15.40
2015,10,14,15,44,15.40
2015,10,14,15,45,15.40
2015,10,14,15,46,15.40
2015,10,14,15,47,15.40
2015,10,14,15,48,15.40
2015,10,14,15,49,15.40
2015,10,14,15,50,15.40
2015,10,14,15,51,15.40
2015,10,14,15,52,15.40
2015,10,14,15,53,15.30
2015,10,14,15,54,15.30
2015,10,14,15,55,15.30
2015,10,14,15,56,15.30
2015,10,14,15,57,15.40
2015,10,14,15,58,15.40
2015,10,14,15,59,15.40
2015,10,14,16,00,15.40
2015,10,14,16,01,15.40
2015,10,14,16,02,15.40
2015,10,14,16,03,15.40
2015,10,14,16,04,15.40
2015,10,14,16,05,15.30
2015,10,14,16,06,15.30
2015,10,14,16,07,15.30
2015,10,14,16,08,15.30
2015,10,14,16,09,15.30
2015,10,14,16,10,15.30
2015,10,14,16,11,15.30
2015,10,14,16,12,15.30
2015,10,14,16,13,15.30
2015,10,14,16,14,15.20
2015,10,14,16,15,15.20
2015,10,14,16,16,15.10
2015,10,14,16,17,15.10
2015,10,14,16,18,15.10
2015,10,14,16,19,15.10
2015,10,14,16,20,15.10
2015,10,14,16,21,15.10
2015,10,14,16,22,15.00
2015,10,14,16,23,15.00
2015,10,14,16,24,14.90
2015,10,14,16,25,14.90
2015,10,14,16,26,14.80
2015,10,14,16,27,14.80
2015,10,14,16,28,14.70
2015,10,14,16,29,14.70
2015,10,14,16,30,14.70
2015,10,14,16,31,14.70
2015,10,14,16,32,14.60
2015,10,14,16,33,14.60
2015,10,14,16,34,14.50
2015,10,14,16,35,14.50
2015,10,14,16,36,14.40
2015,10,14,16,37,14.40
2015,10,14,16,38,14.40
2015,10,14,16,39,14.40
2015,10,14,16,40,14.30
2015,10,14,16,41,14.30
2015,10,14,16,42,14.20
2015,10,14,16,43,14.10
2015,10,14,16,44,14.10
2015,10,14,16,45,14.10
2015,10,14,16,46,14.00
2015,10,14,16,47,14.00
2015,10,14,16,48,13.90
2015,10,14,16,49,13.90
2015,10,14,16,50,13.90
2015,10,14,16,51,13.90
2015,10,14,16,52,13.90
2015,10,14,16,53,13.80
2015,10,14,16,54,13.80
2015,10,14,16,55,13.80
2015,10,14,16,56,13.80
2015,10,14,16,57,13.80
2015,10,14,16,58,13.80
2015,10,14,16,59,13.70
2015,10,14,17,00,13.70
2015,10,14,17,01,13.70
2015,10,14,17,02,13.70
2015,10,14,17,03,13.70
2015,10,14,17,04,13.60
2015,10,14,17,05,13.60
2015,10,14,17,06,13.60
2015,10,14,17,07,13.60
2015,10,14,17,08,13.50
2015,10,14,17,09,13.50
2015,10,14,17,10,13.50
2015,10,14,17,11,13.40
2015,10,14,17,12,13.40
2015,10,14,17,13,13.40
2015,10,14,17,14,13.30
2015,10,14,17,15,13.30
2015,10,14,17,16,13.30
2015,10,14,17,17,13.20
2015,10,14,17,18,13.20
2015,10,14,17,19,13.20
2015,10,14,17,20,13.10
2015,10,14,17,21,13.10
2015,10,14,17,22,13.10
2015,10,14,17,23,13.00
2015,10,14,17,24,13.00
2015,10,14,17,25,12.90
2015,10,14,17,26,12.90
2015,10,14,17,27,12.90
2015,10,14,17,28,12.80
2015,10,14,17,29,12.80
2015,10,14,17,30,12.80
2015,10,14,17,31,12.80
2015,10,14,17,32,12.70
2015,10,14,17,33,12.70
2015,10,14,17,34,12.70
2015,10,14,17,35,12.70
2015,10,14,17,36,12.70
2015,10,14,17,37,12.70
2015,10,14,17,38,12.70
2015,10,14,17,39,12.70
2015,10,14,17,40,12.60
2015,10,14,17,41,12.60
2015,10,14,17,42,12.60
2015,10,14,17,43,12.60
2015,10,14,17,44,12.60